Terminal Aerodrome Forecast
Issued by NWS

Home | Current Version | Previous Version | Text Only | Print | Product List | Glossary On
Versions: 1 2 3 4 5 6 7 8 9 10 11 12 13 14 15 16 17 18 19 20 21 22 23 24 25 26 27
000
FTUS45 KBOU 211509 AAA
TAFBJC
TAF AMD
KBJC 211509Z 2115/2212 34006KT 1SM -SN BR OVC004
     FM211700 32006KT 4SM -SN BKN005 OVC010
     FM211900 07006KT P6SM SCT012 BKN020
     FM220000 20006KT P6SM SCT025 BKN050
     FM220600 VRB04KT P6SM FEW050
     FM221000 33006KT P6SM SCT010=

USA.gov is the U.S. government's official web portal to all federal, state and local government web resources and services.